Location: Sungai Kamana Besar
(2.6333°N, 113.4333°E)
Time: 07:11:26
(UTC+00:00)

Cosmos-2242 - Pass Details

Date: 29 May 2022
Orbit: 588 x 616 km, 82.5° (Epoch: 28 June)

Event Time Altitude Azimuth Distance (km) Brightness Sun altitude
Rises 21:41:38 0° 330° (NNW) 2,830 6.4 -8.8°
Reaches altitude 10° 21:44:21 10° 312° (NW) 1,925 5.3 -8.2°
Maximum altitude 21:47:22 19° 267° (W) 1,432 4.4 -7.5°
Drops below altitude 10° 21:50:22 10° 221° (SW) 1,920 5.0 -6.8°
Sets 21:53:06 0° 203° (SSW) 2,820 6.0 -6.1°
